This is the latest recevied weather packets stored in our database for station/object G4KVI. If no packets are shown the sender has not sent any weather packets the latest 10 day(s).
| Time | Temp. | Humidity | Pressure | Rain* | Wind** | Luminosity | Snow |
|---|---|---|---|---|---|---|---|
| 1788054303 | 15.56° C | 94% | 1010.5 hPa | 1.52 mm | - | 0 W/m² | - |
| 1788054003 | 15.56° C | 94% | 1010.7 hPa | 1.52 mm | - | 0 W/m² | - |
| 1788053703 | 15.56° C | 94% | 1010.4 hPa | 1.52 mm | - | 0 W/m² | - |
| 1788053405 | 15.56° C | 93% | 1010.4 hPa | 1.52 mm | - | 0 W/m² | - |
| 1788053103 | 15.56° C | 93% | 1010.6 hPa | 1.52 mm | - | 0 W/m² | - |
| 1788052803 | 15.56° C | 93% | 1010.2 hPa | 1.52 mm | - | 0 W/m² | - |
| 1788052503 | 15.56° C | 93% | 1010.3 hPa | 1.02 mm | - | 0 W/m² | - |
| 1788052203 | 16.11° C | 93% | 1010.3 hPa | 0.76 mm | - | 0 W/m² | - |
| 1788051903 | 16.11° C | 93% | 1010.3 hPa | 0.25 mm | - | 0 W/m² | - |
| 1788051603 | 16.11° C | 93% | 1010.2 hPa | 0 mm | - | 0 W/m² | - |
| 1788051303 | 16.11° C | 93% | 1010.4 hPa | 0 mm | - | 0 W/m² | - |
| 1788051003 | 16.11° C | 93% | 1010.4 hPa | 0 mm | - | 0 W/m² | - |
| 1788050703 | 16.11° C | 93% | 1010.4 hPa | 0.25 mm | - | 0 W/m² | - |
| 1788050403 | 16.11° C | 92% | 1010.4 hPa | 0.25 mm | - | 0 W/m² | - |
| 1788050103 | 16.11° C | 92% | 1010.2 hPa | 0.25 mm | - | 0 W/m² | - |
| 1788049803 | 16.11° C | 92% | 1010.4 hPa | 0.25 mm | - | 0 W/m² | - |
| 1788049503 | 16.11° C | 92% | 1010.2 hPa | 0.25 mm | - | 0 W/m² | - |
| 1788049203 | 16.11° C | 92% | 1010.2 hPa | 0.25 mm | - | 0 W/m² | - |
| 1788048903 | 16.11° C | 92% | 1010 hPa | 0.25 mm | - | 0 W/m² | - |
| 1788048603 | 16.11° C | 92% | 1010.1 hPa | 0.51 mm | - | 0 W/m² | - |
| 1788048303 | 16.11° C | 92% | 1010.2 hPa | 0.51 mm | - | 0 W/m² | - |
| 1788048003 | 16.11° C | 92% | 1009.9 hPa | 0.76 mm | - | 0 W/m² | - |
| 1788047703 | 16.11° C | 92% | 1010 hPa | 0.76 mm | - | 0 W/m² | - |
| 1788047403 | 16.11° C | 92% | 1009.8 hPa | 0.76 mm | - | 0 W/m² | - |
| 1788047103 | 16.11° C | 92% | 1010 hPa | 0.51 mm | - | 0 W/m² | - |
* Rain latest hour (hover to see other rain measurements)
** Current wind speed in m/s (hover to see current wind gust speed)